This demonstration page uses our WeatherBlox Daily Observations layout. Learn more.

Left ArrowRight Arrow

Hourly Observations for February 6, 2015

Temp ( °F °C ) Dew Point ( °F °C ) Humidity (%) Winds ( mph kmh ) Pressure ( in mb ) Visibility ( mi km ) Precip ( " mm )
12:53 am 00:53 Clear 6 -14.4 3 -16.1 87 87 N N/A 30.42 1030 9 14.48406 N/A
1:53 am 01:53 Clear with Light Snow 7 -13.9 4 -15.6 87 87 N N/A 30.41 1030 8 12.87472 N/A
2:53 am 02:53 Clear 7 -13.9 3 -16.1 84 84 N N/A 30.41 1030 9 14.48406 N/A
3:53 am 03:53 Mostly Cloudy with Light Snow 7 -13.9 4 -15.6 87 87 N N/A 30.39 1029 8 12.87472 N/A
4:53 am 04:53 Mostly Cloudy 8 -13.3 5 -15 87 87 N N/A 30.37 1029 9 14.48406 N/A
5:53 am 05:53 Cloudy 12 -11.1 9 -12.8 87 87 N N/A 30.37 1028 9 14.48406 N/A
6:53 am 06:53 Clear 10 -12.2 7 -13.9 87 87 N N/A 30.37 1029 10 16.0934 N/A
7:53 am 07:53 Cloudy 14 -10 11 -11.7 88 88 N N/A 30.38 1029 8 12.87472 N/A
8:53 am 08:53 Cloudy 19 -7.2 14 -10 81 81 WSW 3 6 30.37 1029 10 16.0934 N/A
9:53 am 09:53 Cloudy 22 -5.6 13 -10.6 68 68 WSW 9 15 30.37 1029 10 16.0934 N/A
10:53 am 10:53 Cloudy 24 -4.4 12 -11.1 60 60 W 7 11 30.37 1028 10 16.0934 N/A
11:53 am 11:53 Mostly Cloudy 26 -3.3 13 -10.6 57 57 WSW 8 13 30.35 1028 10 16.0934 N/A
12:53 pm 12:53 Sunny 29 -1.7 14 -10 54 54 SW 8 13 30.3 1026 10 16.0934 N/A
1:53 pm 13:53 Sunny 31 -0.6 14 -10 49 49 WSW 7 11 30.29 1026 10 16.0934 N/A
2:53 pm 14:53 Cloudy 32 undefined 15 -9.4 50 50 SW 7 11 30.28 1025 10 16.0934 N/A
3:53 pm 15:53 Cloudy 34 1.1 15 -9.4 46 46 SW 6 9 30.27 1025 10 16.0934 N/A
4:53 pm 16:53 Cloudy 34 1.1 16 -8.9 48 48 SSW 5 7 30.25 1024 10 16.0934 N/A
5:53 pm 17:53 Sunny 34 1.1 17 -8.3 50 50 N N/A 30.25 1024 10 16.0934 N/A
6:53 pm 18:53 Mostly Clear 33 0.6 17 -8.3 52 52 N N/A 30.24 1024 10 16.0934 N/A
7:53 pm 19:53 Mostly Cloudy 33 0.6 18 -7.8 54 54 SSE 3 6 30.22 1023 10 16.0934 N/A
8:53 pm 20:53 Clear 32 undefined 17 -8.3 54 54 SE 5 7 30.2 1023 10 16.0934 N/A
9:53 pm 21:53 Mostly Clear 31 -0.6 17 -8.3 56 56 SE 5 7 30.19 1022 10 16.0934 N/A
10:53 pm 22:53 Clear 25 -3.9 17 -8.3 72 72 N N/A 30.19 1023 10 16.0934 N/A
11:53 pm 23:53 Clear 24 -4.4 17 -8.3 75 75 ESE 3 6 30.18 1022 10 16.0934 N/A

Powered by AerisWeather